Location: Windsor
(43.2292°N, 89.3015°W)
Time: 10:14:57
(UTC+00:00)

Tiros 1 - Pass Details

Date: 30 May 2022
Orbit: 629 x 663 km, 48.4° (Epoch: 04 July)

Event Time Altitude Azimuth Distance (km) Brightness Sun altitude
Exits shadow 07:24:22 10° 280° (W) 1,979 9.5 -21.8°
Maximum altitude 07:28:43 45° 354° (N) 865 8.1 -21.5°
Drops below altitude 10° 07:33:12 10° 67° (ENE) 2,026 10.3 -21.2°
Sets 07:35:38 0° 74° (ENE) 2,941 11.1 -21.0°
